Wind_Speed
11 15 11 10 11 12 11 10 9 4 9 6 6 6 4 4 5 6 8 10 12 15 17 22 26 30 32 32 32 33 32 36 40 44 32 30 26 25 29 35 34 34 39 50
10 12 10 10 8 9 5 8 10 5 5 11 8 5 6 7 6 7 9 9 12 14 20 23 28 32 35 33 34 32 34 37 42 38 30 29 27 34 31 35 36 45 45 47
11 10 6 4 6 7 7 7 4 3 13 8 6 8 9 9 8 9 9 9 11 16 21 26 29 34 35 36 34 34 36 38 41 33 30 30 30 36 31 35 39 37 42 47
11 11 8 2 8 6 8 3 3 4 17 8 11 13 13 10 9 11 8 10 13 18 22 26 31 35 37 35 34 35 36 40 40 32 29 32 33 34 29 42 39 40 40 49
13 11 13 5 8 8 6 5 5 13 15 10 13 15 15 12 13 10 10 13 15 20 23 26 32 37 37 34 35 36 37 42 41 33 32 35 35 32 29 37 37 41 40 42
14 17 9 13 10 10 6 2 6 12 9 11 13 15 13 16 14 12 12 14 18 21 24 27 33 37 39 36 36 37 39 44 46 34 33 39 37 29 28 31 38 41 40 41
18 16 16 14 10 8 8 7 14 11 10 11 14 13 15 17 15 14 15 16 17 20 24 26 32 37 41 40 38 39 42 45 52 42 33 36 36 36 38 35 35 35 38 38
17 15 10 12 12 11 10 12 7 10 14 16 17 16 17 16 16 15 17 16 17 19 23 24 30 36 40 45 41 39 44 48 51 55 46 38 36 38 42 42 39 35 34 37
18 18 9 14 11 11 11 11 11 14 16 19 19 17 18 18 17 17 17 15 17 18 22 24 28 35 39 43 46 41 40 45 50 54 55 54 43 40 41 41 43 42 37 32
21 21 14 14 12 11 12 12 14 17 18 20 19 20 18 18 18 19 17 15 17 18 20 22 26 32 37 40 44 46 43 41 45 49 53 57 56 52 42 39 39 40 39 38
25 24 16 16 12 14 13 14 17 20 20 22 20 21 19 18 18 19 17 16 17 17 18 21 23 28 34 38 41 45 47 48 45 44 47 50 53 55 54 51 43 37 34 33
28 22 17 15 10 15 13 15 19 22 22 22 22 21 19 19 19 19 16 15 16 17 17 20 24 26 30 33 38 41 44 46 48 49 49 50 49 49 50 51 52 50 46 36
26 23 19 14 15 15 14 17 21 23 23 23 22 19 19 19 19 20 17 15 14 15 17 19 23 27 30 31 33 36 39 42 45 46 48 49 52 54 54 54 51 48 49 51
25 23 19 16 17 14 17 19 22 23 24 23 23 20 20 19 18 20 18 15 13 13 15 16 18 21 26 30 30 31 33 36 39 42 45 47 47 49 50 51 53 56 56 54
26 23 19 17 18 15 18 20 22 23 24 23 22 21 20 20 19 19 19 15 12 11 12 11 13 15 18 22 25 28 27 28 31 34 38 40 43 46 47 49 49 49 50 51
26 23 20 18 17 17 20 20 21 23 25 25 23 21 19 18 17 16 17 15 12 9 9 9 9 11 14 16 18 21 23 25 24 27 30 33 36 39 41 43 44 46 47 48
22 21 20 19 19 19 20 21 20 23 25 25 24 22 20 19 18 16 16 16 12 10 8 7 6 6 8 10 12 15 18 20 21 22 20 23 25 29 32 35 37 38 39 40
19 21 23 23 24 21 22 22 22 22 23 23 23 23 22 21 21 19 17 17 14 11 8 6 5 6 8 9 10 12 14 17 18 19 20 21 20 20 20 23 27 29 30 31
21 23 30 25 25 25 23 22 23 23 23 22 23 22 22 21 20 18 17 16 16 14 10 7 5 5 6 6 7 9 10 13 15 16 17 19 20 21 21 20 18 19 18 20
24 23 17 26 34 27 24 23 23 23 23 23 24 23 23 21 22 22 20 18 16 13 12 11 9 7 6 5 4 5 6 9 11 12 12 14 16 17 17 18 19 18 18 16
17 19 23 23 25 27 25 26 24 22 21 22 23 23 24 23 22 23 22 21 20 20 18 15 13 11 10 9 7 6 4 3 4 6 8 9 11 12 12 14 15 15 14 14
23 20 21 19 17 21 25 25 22 22 22 21 20 21 25 26 25 25 25 21 18 20 20 18 17 16 14 13 11 10 9 6 4 2 1 3 6 8 9 10 11 10 12 13
24 25 24 23 22 21 17 17 21 20 24 23 21 19 21 27 28 26 27 24 23 25 26 24 22 20 18 17 16 14 14 13 10 8 6 4 4 7 9 9 9 9 9 8
25 26 27 27 28 27 22 23 20 16 22 26 23 21 21 24 28 28 29 27 24 23 25 25 22 21 20 20 19 18 17 17 16 14 13 11 10 10 9 8 8 9 10 9
25 26 26 27 29 30 28 25 23 22 19 25 25 24 23 23 28 29 30 28 25 24 24 25 23 23 21 22 21 22 21 20 19 17 17 16 15 15 13 12 11 10 11 13
26 26 27 27 27 26 26 26 26 26 27 23 22 25 25 26 26 30 31 30 28 26 26 25 25 25 25 26 26 24 24 22 22 21 20 19 19 19 18 17 17 17 17 17
26 27 26 26 26 26 25 25 24 24 27 27 24 23 27 28 27 27 29 33 32 29 28 29 28 26 27 29 29 28 26 25 25 25 24 24 24 24 23 22 23 23 24 24
Wind_Direction
256 223 230 236 240 250 257 264 194 197 190 287 160 151 129 88 85 59 33 36 21 10 6 14 15 9 4 6 11 11 6 7 6 6 24 31 42 50 55 54 43 36 34 57
214 200 221 232 260 263 200 208 221 218 207 164 154 146 129 117 99 67 57 42 29 17 27 23 19 14 9 15 18 14 14 13 13 17 35 35 61 60 54 47 56 54 53 58
188 186 185 226 231 192 200 230 226 94 161 164 140 122 124 116 99 80 77 46 40 38 33 27 23 20 13 21 24 19 19 20 20 36 43 55 64 59 48 52 68 62 71 62
184 164 136 134 193 176 181 175 161 168 159 140 135 129 121 109 91 99 79 68 56 47 37 31 29 27 19 27 30 25 28 28 30 49 52 62 65 59 48 66 69 79 76 77
185 186 111 177 181 188 167 179 177 160 140 136 140 133 124 118 111 107 96 84 64 53 41 36 36 33 27 33 37 33 37 37 41 56 65 67 64 59 59 72 78 83 69 68
185 167 109 183 188 171 155 192 151 134 132 132 140 136 129 121 121 113 107 89 72 58 46 41 41 39 37 38 45 41 44 44 48 59 71 74 69 65 67 76 85 84 77 81
189 193 84 164 180 186 155 138 123 127 130 136 141 129 129 130 128 126 109 96 75 62 52 44 45 44 44 44 49 49 51 52 54 59 68 76 73 70 71 77 85 91 86 86
177 163 101 183 182 179 165 134 148 141 143 144 142 139 136 136 133 128 115 100 78 66 57 50 48 48 48 51 50 55 56 57 58 59 65 73 75 77 74 74 76 82 83 87
179 169 165 184 186 186 153 159 155 154 150 147 145 139 140 142 141 129 118 103 87 72 62 57 52 53 51 53 56 55 59 60 61 62 62 63 69 73 73 73 74 74 73 83
184 181 185 180 183 172 161 157 154 157 153 146 146 145 143 147 144 131 124 105 91 76 69 63 57 57 56 54 56 60 59 62 64 64 65 65 64 64 69 75 76 74 71 70
189 193 173 178 188 167 163 161 156 159 152 152 150 150 147 148 148 135 127 111 93 79 72 67 62 59 60 58 57 60 63 64 64 66 66 67 67 67 65 66 72 77 80 79
188 192 173 174 183 159 165 159 163 160 157 156 153 151 153 152 150 139 131 119 101 85 78 72 66 65 65 63 60 61 62 64 67 68 69 70 70 71 70 69 67 71 77 85
188 189 179 186 159 160 159 160 164 162 161 159 155 155 155 155 154 144 141 131 113 94 87 79 75 70 68 67 65 62 63 64 64 67 70 72 72 72 73 73 73 72 70 72
184 185 182 179 168 167 159 163 163 164 163 163 160 162 161 160 159 149 148 142 126 109 97 86 82 73 71 69 67 65 64 63 65 65 65 68 70 72 74 75 74 73 72 72
189 185 177 177 178 178 167 167 167 166 167 165 167 165 165 163 167 159 155 155 139 123 110 99 84 75 70 71 70 67 66 64 64 66 67 69 69 69 67 68 69 71 72 72
194 193 183 182 183 180 170 170 172 172 170 170 169 167 170 167 168 167 164 163 153 137 122 108 94 82 72 65 63 67 70 69 69 69 72 75 74 74 72 71 71 71 70 69
198 195 186 196 175 177 170 173 175 177 176 176 175 174 176 174 165 169 175 175 169 160 147 124 101 81 68 60 57 62 64 73 74 72 72 72 71 73 79 78 75 73 72 72
198 197 204 207 163 174 172 175 175 177 182 183 183 186 183 184 176 177 180 184 183 178 171 150 128 98 81 80 74 73 68 76 76 76 73 69 67 68 70 74 78 81 79 76
201 214 217 199 167 178 179 180 182 182 185 189 190 191 195 193 189 187 189 190 191 188 186 176 164 131 102 98 90 81 77 79 77 74 72 69 67 66 66 63 61 61 66 74
174 180 199 187 179 181 178 179 182 186 192 196 199 195 196 197 202 198 198 199 198 191 194 190 190 183 158 138 139 105 90 85 80 78 74 73 68 64 60 58 57 55 53 52
175 168 168 180 186 190 185 187 185 188 191 195 200 203 203 204 206 208 205 204 197 199 199 198 197 203 196 188 186 185 166 127 88 72 71 71 67 60 53 51 50 48 40 37
197 187 180 180 186 186 191 198 195 196 200 203 205 207 208 209 211 210 210 209 206 211 209 205 206 208 208 205 203 206 214 218 212 198 52 31 33 34 30 29 29 27 32 29
201 201 199 196 190 199 228 208 195 205 208 205 209 213 213 212 212 214 213 211 211 213 215 213 213 213 210 212 211 211 218 228 241 250 259 270 319 343 353 355 359 3 4 3
210 207 205 206 208 203 219 227 215 216 210 207 207 209 216 214 214 213 214 215 214 216 224 228 226 226 221 222 221 221 223 230 240 251 265 276 287 297 310 317 321 330 335 334
212 210 208 209 211 215 221 225 224 223 221 212 212 211 214 219 217 215 216 217 218 220 224 229 228 231 230 230 228 230 231 232 239 248 257 266 274 280 282 287 288 293 305 310
215 214 213 213 216 220 224 230 233 231 233 229 217 217 217 220 224 222 220 220 220 224 231 232 230 228 229 236 237 237 240 242 245 249 256 260 264 271 276 280 283 284 287 293
214 219 223 224 225 228 230 231 236 238 238 235 231 226 222 223 224 228 227 226 226 225 229 238 238 236 234 236 241 244 244 245 247 251 256 262 264 268 273 277 280 283 287 289
Height
5684 5686 5689 5691 5692 5692 5692 5692 5693 5693 5691 5692 5693 5694 5694 5695 5695 5695 5693 5691 5689 5686 5682 5677 5670 5661 5651 5642 5635 5626 5617 5608 5598 5585 5574 5567 5560 5554 5548 5541 5533 5525 5517 5507
5680 5684 5688 5689 5690 5691 5691 5692 5692 5692 5692 5694 5694 5695 5696 5697 5697 5697 5696 5694 5692 5689 5686 5679 5672 5663 5653 5645 5637 5628 5620 5611 5600 5588 5579 5573 5566 5561 5555 5549 5542 5535 5527 5520
5681 5684 5687 5689 5689 5689 5691 5691 5692 5691 5692 5694 5695 5696 5698 5699 5699 5699 5698 5697 5695 5693 5688 5682 5675 5667 5657 5648 5640 5632 5624 5614 5603 5593 5586 5579 5573 5569 5564 5558 5553 5546 5540 5534
5682 5684 5686 5687 5688 5690 5691 5691 5691 5691 5692 5695 5697 5698 5699 5701 5702 5702 5701 5700 5699 5696 5691 5686 5679 5672 5662 5653 5646 5637 5629 5620 5608 5600 5594 5588 5582 5578 5574 5569 5563 5559 5552 5546
5681 5681 5685 5688 5690 5691 5692 5692 5691 5692 5693 5696 5699 5700 5701 5703 5705 5705 5705 5704 5703 5700 5696 5690 5685 5677 5668 5659 5652 5644 5635 5626 5615 5608 5602 5597 5592 5588 5584 5579 5575 5569 5565 5561
5681 5680 5681 5685 5689 5690 5691 5691 5692 5693 5696 5699 5701 5703 5704 5706 5707 5708 5708 5708 5706 5704 5700 5696 5691 5684 5675 5666 5659 5651 5643 5635 5624 5616 5612 5608 5603 5599 5595 5590 5586 5581 5579 5576
5679 5678 5680 5684 5689 5691 5692 5696 5693 5695 5698 5701 5704 5706 5708 5709 5710 5711 5712 5712 5711 5708 5705 5702 5697 5691 5684 5674 5667 5660 5652 5644 5636 5627 5622 5618 5614 5610 5606 5601 5597 5594 5593 5591
5678 5680 5683 5685 5689 5691 5692 5694 5695 5697 5700 5702 5706 5708 5711 5713 5713 5714 5715 5716 5715 5713 5711 5708 5704 5698 5692 5684 5676 5670 5662 5655 5647 5640 5633 5628 5624 5620 5616 5612 5610 5608 5606 5604
5678 5680 5681 5686 5689 5691 5693 5695 5697 5700 5702 5705 5708 5711 5714 5716 5716 5718 5719 5720 5719 5718 5716 5714 5711 5706 5701 5694 5687 5679 5673 5666 5660 5653 5646 5640 5634 5630 5627 5624 5621 5619 5618 5617
5675 5679 5682 5687 5688 5691 5693 5695 5698 5701 5704 5708 5711 5714 5717 5719 5720 5722 5723 5724 5723 5723 5721 5720 5717 5713 5709 5704 5698 5691 5684 5677 5671 5665 5660 5654 5649 5643 5639 5636 5633 5630 5630 5629
5675 5677 5682 5686 5688 5692 5695 5697 5699 5703 5707 5710 5713 5717 5719 5721 5723 5725 5726 5727 5727 5727 5727 5725 5723 5720 5717 5713 5708 5702 5696 5690 5683 5678 5672 5667 5662 5658 5655 5651 5645 5643 5642 5641
5675 5678 5683 5686 5689 5692 5695 5698 5701 5704 5709 5712 5716 5719 5722 5724 5726 5729 5730 5731 5731 5732 5731 5731 5729 5727 5724 5721 5717 5713 5708 5703 5697 5691 5685 5681 5676 5672 5668 5666 5663 5659 5658 5656
5674 5678 5683 5686 5689 5693 5696 5699 5702 5706 5711 5714 5718 5721 5724 5726 5729 5731 5733 5734 5735 5736 5736 5736 5735 5734 5731 5728 5725 5722 5719 5714 5709 5705 5700 5696 5691 5687 5683 5680 5677 5675 5672 5669
5672 5677 5683 5686 5691 5694 5696 5700 5704 5708 5712 5716 5719 5723 5726 5729 5731 5733 5735 5737 5738 5740 5740 5741 5740 5739 5738 5735 5732 5730 5727 5724 5720 5716 5712 5709 5705 5701 5698 5695 5692 5689 5686 5683
5672 5677 5682 5687 5691 5694 5697 5701 5705 5709 5713 5718 5721 5724 5728 5731 5733 5735 5737 5739 5740 5742 5744 5744 5744 5744 5743 5742 5740 5738 5735 5733 5730 5727 5724 5721 5718 5715 5711 5707 5704 5702 5700 5698
5672 5678 5683 5687 5690 5695 5698 5702 5706 5710 5714 5718 5722 5726 5729 5733 5735 5737 5739 5741 5743 5745 5746 5747 5748 5748 5748 5747 5746 5744 5742 5740 5738 5737 5734 5732 5729 5727 5724 5721 5719 5716 5714 5711
5672 5678 5683 5686 5689 5695 5699 5703 5707 5711 5715 5719 5722 5725 5729 5732 5736 5738 5740 5741 5744 5746 5748 5749 5750 5751 5751 5751 5750 5749 5748 5746 5745 5743 5742 5741 5739 5737 5735 5733 5731 5729 5727 5725
5673 5677 5681 5684 5690 5695 5699 5703 5707 5711 5715 5719 5723 5726 5728 5731 5735 5737 5740 5742 5744 5747 5749 5751 5752 5753 5753 5754 5753 5753 5752 5751 5750 5748 5748 5746 5745 5744 5743 5742 5740 5739 5738 5736
5672 5675 5679 5684 5689 5694 5698 5702 5706 5710 5714 5718 5722 5726 5729 5732 5735 5737 5740 5742 5744 5747 5750 5752 5753 5754 5755 5756 5756 5756 5756 5755 5754 5754 5753 5752 5751 5750 5749 5748 5747 5746 5745 5744
5673 5677 5678 5681 5686 5692 5696 5700 5704 5709 5712 5716 5720 5723 5727 5730 5733 5735 5738 5741 5744 5747 5749 5751 5753 5755 5756 5757 5758 5758 5758 5758 5757 5757 5757 5756 5756 5755 5753 5753 5752 5751 5750 5749
5672 5675 5680 5683 5687 5691 5695 5698 5702 5706 5710 5713 5717 5721 5724 5727 5730 5733 5736 5739 5741 5744 5747 5750 5752 5754 5756 5757 5758 5759 5759 5760 5760 5759 5759 5759 5759 5758 5758 5757 5756 5755 5754 5753
5671 5674 5678 5682 5686 5690 5693 5697 5701 5704 5708 5712 5715 5718 5720 5724 5727 5730 5733 5737 5741 5743 5745 5748 5750 5752 5754 5755 5757 5758 5759 5760 5760 5761 5761 5760 5760 5760 5759 5759 5758 5757 5756 5755
5669 5672 5676 5679 5683 5687 5690 5694 5698 5701 5704 5708 5711 5714 5717 5720 5723 5726 5729 5733 5736 5738 5740 5743 5746 5749 5751 5753 5754 5756 5757 5758 5758 5759 5760 5760 5760 5760 5759 5758 5758 5757 5757 5756
5666 5670 5673 5677 5680 5684 5687 5689 5693 5696 5699 5703 5707 5710 5713 5715 5718 5722 5726 5729 5732 5735 5737 5740 5743 5745 5748 5750 5751 5753 5754 5755 5756 5757 5757 5758 5758 5758 5758 5757 5757 5756 5755 5754
5661 5665 5669 5673 5677 5681 5684 5687 5689 5692 5694 5698 5702 5705 5708 5711 5714 5717 5721 5725 5729 5731 5732 5735 5739 5741 5743 5745 5747 5749 5750 5751 5752 5753 5754 5754 5755 5754 5754 5754 5754 5754 5753 5752
5658 5662 5666 5669 5673 5677 5679 5682 5685 5688 5690 5693 5696 5699 5703 5706 5709 5712 5716 5720 5723 5726 5728 5729 5732 5735 5737 5739 5741 5743 5745 5747 5747 5748 5748 5749 5750 5749 5749 5749 5749 5749 5749 5748
5655 5658 5661 5664 5667 5671 5674 5677 5680 5683 5686 5689 5692 5694 5697 5700 5703 5706 5710 5713 5717 5720 5722 5723 5725 5728 5730 5732 5734 5736 5738 5740 5741 5742 5742 5743 5743 5743 5743 5743 5743 5743 5742 5741